AAL1264 KCLE-KCLT

Flight info

Callsign AAL1264
Flight time 1h 3m
Altitude 35000
Route CAVVS5 APE HVQ LNDIZ PARQR4
Aircraft A321/M-SDE3FGHIRWY/LB1

Departure

Time 2026-05-06 16:39
Airport Cleveland Hopkins International Airport (KCLE)

Arrival

Time 2026-05-06 17:42
Airport Charlotte Douglas International Airport (KCLT)
Time Latitude Longitude Altitude Speed Heading
2026-05-06 16:29 41.40944 -81.84024 792 ft 0 kts 144°
2026-05-06 16:32 41.40949 -81.84029 792 ft 4 kts 145°
2026-05-06 16:32 41.40972 -81.84049 791 ft 4 kts 152°
2026-05-06 16:32 41.40996 -81.84064 791 ft 4 kts 166°
2026-05-06 16:32 41.41020 -81.84065 791 ft 4 kts 215°
2026-05-06 16:33 41.41027 -81.84057 791 ft 0 kts 251°
2026-05-06 16:35 41.41027 -81.84058 791 ft 1 kts 251°
2026-05-06 16:35 41.41019 -81.84088 791 ft 5 kts 251°
2026-05-06 16:36 41.41017 -81.84140 790 ft 7 kts 280°
2026-05-06 16:36 41.41041 -81.84225 791 ft 10 kts 295°
2026-05-06 16:36 41.41057 -81.84316 791 ft 11 kts 274°
2026-05-06 16:36 41.41079 -81.84408 791 ft 11 kts 324°
2026-05-06 16:37 41.41138 -81.84471 790 ft 11 kts 320°
2026-05-06 16:37 41.41208 -81.84488 789 ft 11 kts 34°
2026-05-06 16:37 41.41264 -81.84403 789 ft 13 kts 50°
2026-05-06 16:37 41.41324 -81.84307 789 ft 14 kts 50°
2026-05-06 16:38 41.41391 -81.84203 791 ft 15 kts 50°
2026-05-06 16:38 41.41472 -81.84160 790 ft 13 kts 338°
2026-05-06 16:38 41.41515 -81.84227 790 ft 8 kts 259°
2026-05-06 16:38 41.41405 -81.84408 790 ft 60 kts 230°
2026-05-06 16:39 41.40947 -81.85132 788 ft 141 kts 230°
2026-05-06 16:39 41.40186 -81.86324 1118 ft 178 kts 232°
2026-05-06 16:39 41.39390 -81.87563 2192 ft 177 kts 232°
2026-05-06 16:39 41.38501 -81.88766 2846 ft 191 kts 217°
2026-05-06 16:40 41.37204 -81.89506 3099 ft 216 kts 200°
2026-05-06 16:40 41.35699 -81.90146 3274 ft 239 kts 200°
2026-05-06 16:40 41.34028 -81.90850 3525 ft 263 kts 199°
2026-05-06 16:40 41.32248 -81.91596 4136 ft 272 kts 200°
2026-05-06 16:41 41.30436 -81.92356 4914 ft 274 kts 200°
2026-05-06 16:41 41.28618 -81.93121 5733 ft 274 kts 200°
2026-05-06 16:41 41.26808 -81.93887 6575 ft 272 kts 200°
2026-05-06 16:41 41.25012 -81.94647 7360 ft 271 kts 201°
2026-05-06 16:42 41.23212 -81.95412 8110 ft 272 kts 202°
2026-05-06 16:42 41.21412 -81.96182 8885 ft 272 kts 203°
2026-05-06 16:42 41.19608 -81.96957 9631 ft 273 kts 204°
2026-05-06 16:42 41.17816 -81.97788 10232 ft 277 kts 207°
2026-05-06 16:43 41.15955 -81.98761 10358 ft 298 kts 208°
2026-05-06 16:43 41.13980 -81.99846 10485 ft 317 kts 208°
2026-05-06 16:43 41.11892 -82.00997 10765 ft 330 kts 207°
2026-05-06 16:43 41.09783 -82.02141 11309 ft 334 kts 207°
2026-05-06 16:44 41.07620 -82.03298 11928 ft 336 kts 206°
2026-05-06 16:44 41.05440 -82.04450 12534 ft 338 kts 206°
2026-05-06 16:44 41.03246 -82.05603 13138 ft 341 kts 206°
2026-05-06 16:44 41.01039 -82.06763 13732 ft 343 kts 206°
2026-05-06 16:45 40.98816 -82.07932 14245 ft 345 kts 206°
2026-05-06 16:45 40.96577 -82.09112 14756 ft 347 kts 206°
2026-05-06 16:45 40.94337 -82.10335 15260 ft 349 kts 208°
2026-05-06 16:45 40.92120 -82.11659 15792 ft 350 kts 210°
2026-05-06 16:46 40.89910 -82.13044 16312 ft 353 kts 211°
2026-05-06 16:46 40.87694 -82.14454 16833 ft 355 kts 211°
2026-05-06 16:46 40.85461 -82.15872 17333 ft 357 kts 212°
2026-05-06 16:46 40.83214 -82.17286 17845 ft 359 kts 212°
2026-05-06 16:47 40.80952 -82.18696 18314 ft 361 kts 212°
2026-05-06 16:47 40.78670 -82.20106 18731 ft 363 kts 212°
2026-05-06 16:47 40.76379 -82.21514 19159 ft 364 kts 212°
2026-05-06 16:47 40.74083 -82.22922 19627 ft 364 kts 212°
2026-05-06 16:48 40.71785 -82.24328 20069 ft 365 kts 213°
2026-05-06 16:48 40.69480 -82.25739 20513 ft 365 kts 213°
2026-05-06 16:48 40.67172 -82.27154 20961 ft 366 kts 213°
2026-05-06 16:48 40.64859 -82.28571 21380 ft 367 kts 214°
2026-05-06 16:49 40.62549 -82.29983 21890 ft 366 kts 214°
2026-05-06 16:49 40.60243 -82.31390 22375 ft 366 kts 214°
2026-05-06 16:49 40.57931 -82.32801 22854 ft 366 kts 214°
2026-05-06 16:49 40.55618 -82.34216 23288 ft 367 kts 214°
2026-05-06 16:50 40.53300 -82.35633 23701 ft 368 kts 215°
2026-05-06 16:50 40.50976 -82.37056 24043 ft 369 kts 215°
2026-05-06 16:50 40.48644 -82.38482 24360 ft 371 kts 215°
2026-05-06 16:50 40.47090 -82.39431 24587 ft 372 kts 215°
2026-05-06 16:51 40.43943 -82.41346 25018 ft 374 kts 215°
2026-05-06 16:51 40.41580 -82.42785 25333 ft 375 kts 216°
2026-05-06 16:51 40.39209 -82.44230 25644 ft 377 kts 216°
2026-05-06 16:51 40.36827 -82.45680 25948 ft 378 kts 216°
2026-05-06 16:52 40.34469 -82.47114 26253 ft 380 kts 216°
2026-05-06 16:52 40.32067 -82.48573 26571 ft 381 kts 216°
2026-05-06 16:52 40.29655 -82.50036 26860 ft 383 kts 216°
2026-05-06 16:52 40.27234 -82.51504 27145 ft 384 kts 216°
2026-05-06 16:53 40.24803 -82.52977 27417 ft 386 kts 216°
2026-05-06 16:53 40.22364 -82.54453 27649 ft 387 kts 216°
2026-05-06 16:53 40.19909 -82.55934 27913 ft 390 kts 216°
2026-05-06 16:53 40.17285 -82.57096 28153 ft 409 kts 205°
2026-05-06 16:54 40.14381 -82.57515 28382 ft 433 kts 193°
2026-05-06 16:54 40.11299 -82.57015 28597 ft 462 kts 179°
2026-05-06 16:54 40.08189 -82.55667 28798 ft 475 kts 174°
2026-05-06 16:54 40.05069 -82.54199 29004 ft 477 kts 174°
2026-05-06 16:55 40.01938 -82.52722 29189 ft 479 kts 174°
2026-05-06 16:55 39.98803 -82.51245 29402 ft 479 kts 174°
2026-05-06 16:55 39.95674 -82.49776 29681 ft 478 kts 174°
2026-05-06 16:55 39.92544 -82.48317 29951 ft 477 kts 174°
2026-05-06 16:56 39.90427 -82.47337 30119 ft 477 kts 174°
2026-05-06 16:56 39.87301 -82.45892 30345 ft 477 kts 175°
2026-05-06 16:56 39.84174 -82.44448 30578 ft 477 kts 175°
2026-05-06 16:56 39.81046 -82.43006 30826 ft 476 kts 175°
2026-05-06 16:57 39.76913 -82.41102 31086 ft 476 kts 175°
2026-05-06 16:57 39.74804 -82.40131 31219 ft 476 kts 175°
2026-05-06 16:57 39.71685 -82.38695 31409 ft 476 kts 175°
2026-05-06 16:57 39.68558 -82.37256 31615 ft 476 kts 175°
2026-05-06 16:58 39.65439 -82.35823 31830 ft 476 kts 175°
2026-05-06 16:58 39.62316 -82.34390 32056 ft 476 kts 175°
2026-05-06 16:58 39.59196 -82.32957 32282 ft 476 kts 175°
2026-05-06 16:58 39.56078 -82.31526 32502 ft 475 kts 175°
2026-05-06 16:59 39.52962 -82.30097 32659 ft 475 kts 175°
2026-05-06 16:59 39.49844 -82.28673 32858 ft 475 kts 175°
2026-05-06 16:59 39.46730 -82.27248 33057 ft 475 kts 175°
2026-05-06 16:59 39.43654 -82.25838 33254 ft 475 kts 176°
2026-05-06 17:00 39.40541 -82.24410 33461 ft 475 kts 176°
2026-05-06 17:00 39.37429 -82.22983 33670 ft 474 kts 176°
2026-05-06 17:00 39.34276 -82.21541 33880 ft 474 kts 176°
2026-05-06 17:00 39.31167 -82.20124 34012 ft 474 kts 176°
2026-05-06 17:01 39.28099 -82.18733 34185 ft 474 kts 176°
2026-05-06 17:01 39.24986 -82.17325 34346 ft 474 kts 176°
2026-05-06 17:01 39.21877 -82.15919 34521 ft 474 kts 176°
2026-05-06 17:01 39.18763 -82.14513 34695 ft 474 kts 176°
2026-05-06 17:02 39.15653 -82.13107 34871 ft 473 kts 176°
2026-05-06 17:02 39.09441 -82.10289 34957 ft 473 kts 176°
2026-05-06 17:03 39.03242 -82.07481 34946 ft 472 kts 176°
2026-05-06 17:03 38.97053 -82.04703 34937 ft 471 kts 176°
2026-05-06 17:04 38.90860 -82.01927 34933 ft 471 kts 176°
2026-05-06 17:04 38.84668 -81.99142 34870 ft 472 kts 175°
2026-05-06 17:05 38.78490 -81.96367 34922 ft 470 kts 175°
2026-05-06 17:05 38.72312 -81.93599 34943 ft 470 kts 175°
2026-05-06 17:06 38.66132 -81.90836 34938 ft 470 kts 175°
2026-05-06 17:06 38.59956 -81.88079 34901 ft 470 kts 175°
2026-05-06 17:07 38.53786 -81.85334 34929 ft 469 kts 175°
2026-05-06 17:07 38.47624 -81.82602 34946 ft 469 kts 175°
2026-05-06 17:08 38.41464 -81.79872 34949 ft 468 kts 175°
2026-05-06 17:08 38.35301 -81.77456 34902 ft 451 kts 184°
2026-05-06 17:08 38.32239 -81.76961 34910 ft 436 kts 192°
2026-05-06 17:09 38.29236 -81.76891 34916 ft 431 kts 194°
2026-05-06 17:09 38.23236 -81.76826 34926 ft 431 kts 194°
2026-05-06 17:10 38.17233 -81.76743 34923 ft 432 kts 194°
2026-05-06 17:10 38.11226 -81.76655 34925 ft 432 kts 194°
2026-05-06 17:11 38.05214 -81.76572 34893 ft 432 kts 194°
2026-05-06 17:11 37.99193 -81.76491 34908 ft 433 kts 194°
2026-05-06 17:12 37.93170 -81.76404 34918 ft 433 kts 194°
2026-05-06 17:12 37.87185 -81.76325 34887 ft 433 kts 193°
2026-05-06 17:13 37.81168 -81.76235 34901 ft 432 kts 193°
2026-05-06 17:13 37.75152 -81.76148 34902 ft 433 kts 194°
2026-05-06 17:14 37.69133 -81.76068 34907 ft 433 kts 193°
2026-05-06 17:14 37.63103 -81.75989 34869 ft 434 kts 192°
2026-05-06 17:15 37.57047 -81.75910 34880 ft 436 kts 192°
2026-05-06 17:15 37.50967 -81.75821 34894 ft 437 kts 192°
2026-05-06 17:16 37.44879 -81.75728 34904 ft 438 kts 192°
2026-05-06 17:16 37.38784 -81.75640 34886 ft 438 kts 192°
2026-05-06 17:17 37.32680 -81.75569 34882 ft 438 kts 192°
2026-05-06 17:17 37.26571 -81.75503 34976 ft 439 kts 193°
2026-05-06 17:18 37.20449 -81.75426 34997 ft 440 kts 192°
2026-05-06 17:18 37.14303 -81.75340 35022 ft 444 kts 192°
2026-05-06 17:19 37.08136 -81.75358 35016 ft 440 kts 195°
2026-05-06 17:19 37.02042 -81.75820 35021 ft 437 kts 197°
2026-05-06 17:20 36.95982 -81.76420 35019 ft 437 kts 197°
2026-05-06 17:20 36.89941 -81.76973 34976 ft 439 kts 197°
2026-05-06 17:21 36.83844 -81.77508 34966 ft 440 kts 197°
2026-05-06 17:21 36.77722 -81.78034 34642 ft 442 kts 196°
2026-05-06 17:21 36.74622 -81.78309 33555 ft 451 kts 195°
2026-05-06 17:22 36.71476 -81.78596 32533 ft 455 kts 194°
2026-05-06 17:22 36.68310 -81.78879 31571 ft 457 kts 193°
2026-05-06 17:22 36.65128 -81.79156 30675 ft 459 kts 192°
2026-05-06 17:22 36.61959 -81.79424 29990 ft 454 kts 192°
2026-05-06 17:23 36.58815 -81.79684 29113 ft 451 kts 192°
2026-05-06 17:23 36.55693 -81.79946 28298 ft 448 kts 192°
2026-05-06 17:23 36.52591 -81.80207 27519 ft 445 kts 192°
2026-05-06 17:23 36.49516 -81.80467 26822 ft 441 kts 192°
2026-05-06 17:24 36.46464 -81.80606 26453 ft 437 kts 185°
2026-05-06 17:24 36.43471 -81.80083 26329 ft 433 kts 174°
2026-05-06 17:24 36.40637 -81.78846 26137 ft 433 kts 162°
2026-05-06 17:24 36.37984 -81.77083 25729 ft 430 kts 159°
2026-05-06 17:25 36.35370 -81.75294 25257 ft 427 kts 159°
2026-05-06 17:25 36.32777 -81.73527 24768 ft 424 kts 159°
2026-05-06 17:25 36.30192 -81.71776 24313 ft 422 kts 159°
2026-05-06 17:25 36.27617 -81.70040 23828 ft 420 kts 159°
2026-05-06 17:26 36.25055 -81.68318 23333 ft 417 kts 159°
2026-05-06 17:26 36.22516 -81.66607 22740 ft 415 kts 159°
2026-05-06 17:26 36.19991 -81.64905 22184 ft 411 kts 159°
2026-05-06 17:26 36.17492 -81.63219 21704 ft 407 kts 159°
2026-05-06 17:27 36.15017 -81.61550 21208 ft 403 kts 159°
2026-05-06 17:27 36.12560 -81.59896 20723 ft 400 kts 159°
2026-05-06 17:27 36.10124 -81.58260 20249 ft 397 kts 159°
2026-05-06 17:27 36.07704 -81.56637 19720 ft 395 kts 159°
2026-05-06 17:28 36.05298 -81.55024 19237 ft 391 kts 159°
2026-05-06 17:28 36.02918 -81.53430 18771 ft 387 kts 159°
2026-05-06 17:28 36.00556 -81.51850 18266 ft 386 kts 159°
2026-05-06 17:28 35.98201 -81.50275 17736 ft 384 kts 159°
2026-05-06 17:29 35.95871 -81.48714 17183 ft 380 kts 159°
2026-05-06 17:29 35.93579 -81.47173 16392 ft 372 kts 159°
2026-05-06 17:29 35.91319 -81.45657 15444 ft 367 kts 159°
2026-05-06 17:29 35.89089 -81.44167 14554 ft 361 kts 159°
2026-05-06 17:30 35.86907 -81.42709 13730 ft 355 kts 159°
2026-05-06 17:30 35.84746 -81.41271 12797 ft 350 kts 159°
2026-05-06 17:30 35.82633 -81.39865 12196 ft 337 kts 159°
2026-05-06 17:30 35.80624 -81.38520 11713 ft 322 kts 159°
2026-05-06 17:31 35.78687 -81.37226 11472 ft 317 kts 159°
2026-05-06 17:31 35.76754 -81.35923 11230 ft 317 kts 159°
2026-05-06 17:31 35.74833 -81.34587 10996 ft 318 kts 158°
2026-05-06 17:31 35.72929 -81.33240 10936 ft 315 kts 158°
2026-05-06 17:32 35.71027 -81.31878 10735 ft 316 kts 157°
2026-05-06 17:32 35.69135 -81.30512 10533 ft 315 kts 157°
2026-05-06 17:32 35.67279 -81.29080 10333 ft 319 kts 148°
2026-05-06 17:32 35.65752 -81.27061 10121 ft 329 kts 128°
2026-05-06 17:33 35.64798 -81.24484 9907 ft 336 kts 107°
2026-05-06 17:33 35.64565 -81.21636 9675 ft 337 kts 85°
2026-05-06 17:33 35.64782 -81.18773 9463 ft 337 kts 84°
2026-05-06 17:33 35.64933 -81.15905 9247 ft 335 kts 95°
2026-05-06 17:34 35.64433 -81.13177 9055 ft 330 kts 110°
2026-05-06 17:34 35.63728 -81.10498 8851 ft 329 kts 111°
2026-05-06 17:34 35.63004 -81.07837 8644 ft 328 kts 111°
2026-05-06 17:34 35.62275 -81.05187 8434 ft 327 kts 111°
2026-05-06 17:35 35.61418 -81.02620 8232 ft 321 kts 124°
2026-05-06 17:35 35.60052 -81.00508 8037 ft 312 kts 144°
2026-05-06 17:35 35.58303 -80.99018 7685 ft 303 kts 162°
2026-05-06 17:36 35.54379 -80.98041 6878 ft 284 kts 184°
2026-05-06 17:36 35.52412 -80.97882 6473 ft 282 kts 184°
2026-05-06 17:36 35.50484 -80.97712 6084 ft 269 kts 184°
2026-05-06 17:36 35.48677 -80.97550 5751 ft 252 kts 184°
2026-05-06 17:37 35.46991 -80.97403 5460 ft 233 kts 184°
2026-05-06 17:37 35.45407 -80.97268 5148 ft 225 kts 184°
2026-05-06 17:37 35.43859 -80.97138 4859 ft 220 kts 184°
2026-05-06 17:37 35.42357 -80.97009 4566 ft 214 kts 183°
2026-05-06 17:38 35.40879 -80.96881 4272 ft 211 kts 184°
2026-05-06 17:38 35.39437 -80.96755 3987 ft 204 kts 184°
2026-05-06 17:38 35.38058 -80.96635 3743 ft 194 kts 184°
2026-05-06 17:38 35.36735 -80.96521 3488 ft 187 kts 185°
2026-05-06 17:39 35.35464 -80.96411 3256 ft 179 kts 184°
2026-05-06 17:39 35.34250 -80.96306 3030 ft 171 kts 183°
2026-05-06 17:39 35.33083 -80.96206 2810 ft 165 kts 184°
2026-05-06 17:39 35.31985 -80.96110 2613 ft 152 kts 181°
2026-05-06 17:40 35.30961 -80.96023 2418 ft 144 kts 182°
2026-05-06 17:40 35.29977 -80.95939 2227 ft 141 kts 183°
2026-05-06 17:40 35.29006 -80.95856 2046 ft 140 kts 181°
2026-05-06 17:40 35.28362 -80.95800 1912 ft 142 kts 179°
2026-05-06 17:41 35.27380 -80.95716 1737 ft 140 kts 179°
2026-05-06 17:41 35.26073 -80.95605 1470 ft 147 kts 178°
2026-05-06 17:41 35.25070 -80.95518 1234 ft 147 kts 181°
2026-05-06 17:41 35.24052 -80.95435 1071 ft 148 kts 180°
2026-05-06 17:42 35.23013 -80.95340 842 ft 152 kts 180°
2026-05-06 17:42 35.21994 -80.95257 742 ft 134 kts 178°
2026-05-06 17:42 35.21323 -80.95200 738 ft 61 kts 175°
2026-05-06 17:42 35.20961 -80.95167 737 ft 46 kts 176°
2026-05-06 17:43 35.20776 -80.95139 738 ft 33 kts 166°
2026-05-06 17:43 35.20622 -80.95053 737 ft 20 kts 145°
2026-05-06 17:43 35.20579 -80.94949 733 ft 14 kts 48°
2026-05-06 17:43 35.20676 -80.94939 733 ft 15 kts 356°
2026-05-06 17:44 35.20786 -80.94948 732 ft 17 kts 356°
2026-05-06 17:44 35.20928 -80.94962 726 ft 23 kts 355°
2026-05-06 17:44 35.21077 -80.94975 732 ft 20 kts 356°
2026-05-06 17:44 35.21215 -80.94986 733 ft 20 kts 356°
2026-05-06 17:45 35.21358 -80.94999 733 ft 21 kts 355°
2026-05-06 17:45 35.21507 -80.95013 733 ft 22 kts 355°
2026-05-06 17:45 35.21591 -80.94993 733 ft 11 kts 52°
2026-05-06 17:45 35.21606 -80.94901 733 ft 13 kts 85°
2026-05-06 17:46 35.21612 -80.94790 732 ft 12 kts 86°
2026-05-06 17:46 35.21618 -80.94689 732 ft 13 kts 86°
2026-05-06 17:46 35.21625 -80.94561 732 ft 15 kts 87°
2026-05-06 17:46 35.21640 -80.94445 732 ft 13 kts 68°
2026-05-06 17:47 35.21689 -80.94378 732 ft 9 kts 16°
2026-05-06 17:47 35.21746 -80.94378 732 ft 7 kts 354°
2026-05-06 17:47 35.21772 -80.94406 732 ft 4 kts 301°
2026-05-06 17:47 35.21783 -80.94445 732 ft 5 kts 287°
2026-05-06 17:48 35.21790 -80.94473 732 ft 2 kts 287°
2026-05-06 17:48 35.21791 -80.94478 732 ft 0 kts 287°